TimeCDT,TemperatureF,Dew PointF,Humidity,Sea Level PressureIn,VisibilityMPH,Wind Direction,Wind SpeedMPH,Gust SpeedMPH,PrecipitationIn,Events,Conditions,WindDirDegrees,DateUTC
12:55 AM,67.6,57.9,71,29.82,10.0,South,10.4,-,N/A,,Partly Cloudy,170,2012-09-25 05:55:00
1:55 AM,68.9,59.5,72,29.81,10.0,South,12.7,-,N/A,,Mostly Cloudy,190,2012-09-25 06:55:00
2:55 AM,69.6,60.6,73,29.78,10.0,SSW,17.3,-,N/A,,Mostly Cloudy,200,2012-09-25 07:55:00
3:55 AM,72.5,61.0,67,29.76,10.0,SSW,18.4,24.2,N/A,,Overcast,210,2012-09-25 08:55:00
4:55 AM,73.6,60.6,64,29.76,10.0,SW,17.3,23.0,N/A,,Mostly Cloudy,220,2012-09-25 09:55:00
5:55 AM,73.0,60.4,65,29.81,10.0,NNW,8.1,-,N/A,,Overcast,330,2012-09-25 10:55:00
6:55 AM,67.8,61.3,80,29.81,10.0,SE,4.6,-,N/A,,Clear,130,2012-09-25 11:55:00
7:55 AM,68.5,61.3,78,29.82,10.0,South,8.1,-,N/A,,Scattered Clouds,170,2012-09-25 12:55:00
8:55 AM,72.9,62.6,70,29.83,10.0,South,5.8,-,N/A,,Scattered Clouds,170,2012-09-25 13:55:00
9:28 AM,77.0,62.6,61,29.83,10.0,SW,11.5,-,N/A,,Light Drizzle,220,2012-09-25 14:28:00
9:29 AM,77.0,62.6,61,29.83,10.0,SW,12.7,-,N/A,,Mostly Cloudy,220,2012-09-25 14:29:00
9:30 AM,77.0,62.6,61,29.83,10.0,SW,12.7,-,N/A,,Light Drizzle,230,2012-09-25 14:30:00
9:34 AM,77.0,62.6,61,29.83,10.0,SW,11.5,-,N/A,Rain-Thunderstorm,Light Thunderstorms and Rain,230,2012-09-25 14:34:00
9:36 AM,77.0,62.6,61,29.84,7.0,SW,12.7,-,N/A,Rain-Thunderstorm,Light Thunderstorms and Rain,220,2012-09-25 14:36:00
9:55 AM,72.5,64.9,77,29.83,9.0,SW,6.9,-,0.04,Thunderstorm,Mostly Cloudy,220,2012-09-25 14:55:00
10:55 AM,75.7,64.6,68,29.83,10.0,SSW,10.4,-,0.00,,Mostly Cloudy,200,2012-09-25 15:55:00
11:55 AM,79.2,63.3,58,29.82,10.0,SW,16.1,-,N/A,,Mostly Cloudy,230,2012-09-25 16:55:00
12:55 PM,80.8,63.1,55,29.81,10.0,WSW,15.0,-,N/A,,Mostly Cloudy,240,2012-09-25 17:55:00
2:55 PM,81.1,63.5,55,29.79,10.0,WSW,11.5,-,N/A,,Scattered Clouds,250,2012-09-25 19:55:00
3:55 PM,82.8,64.2,53,29.79,10.0,WSW,10.4,-,N/A,,Partly Cloudy,250,2012-09-25 20:55:00
4:55 PM,80.8,64.0,57,29.79,10.0,SW,9.2,-,N/A,,Clear,220,2012-09-25 21:55:00
5:25 PM,75.2,69.8,83,29.78,10.0,SSW,4.6,-,N/A,,Scattered Clouds,210,2012-09-25 22:25:00
5:55 PM,75.7,68.2,77,29.78,10.0,Calm,Calm,-,0.00,Thunderstorm,Partly Cloudy,0,2012-09-25 22:55:00
6:55 PM,74.3,67.6,80,29.81,10.0,WNW,5.8,-,N/A,,Scattered Clouds,290,2012-09-25 23:55:00
7:04 PM,73.4,69.8,88,29.82,10.0,West,5.8,-,N/A,,Scattered Clouds,280,2012-09-26 00:04:00
7:16 PM,73.4,68.0,83,29.81,10.0,West,4.6,-,N/A,,Light Drizzle,280,2012-09-26 00:16:00
7:23 PM,73.4,68.0,83,29.81,10.0,West,3.5,-,N/A,Rain,Light Rain,270,2012-09-26 00:23:00
7:35 PM,73.4,68.0,83,29.80,10.0,Calm,Calm,-,N/A,,Clear,0,2012-09-26 00:35:00
7:36 PM,73.4,68.0,83,29.80,10.0,Calm,Calm,-,N/A,,Light Drizzle,0,2012-09-26 00:36:00
7:39 PM,73.4,68.0,83,29.81,10.0,WSW,2.3,-,N/A,,Light Drizzle,240,2012-09-26 00:39:00
7:42 PM,71.6,68.0,88,29.81,10.0,SW,2.3,-,N/A,,Light Drizzle,220,2012-09-26 00:42:00
7:55 PM,71.1,69.6,95,29.80,10.0,SSW,3.5,-,0.00,,Clear,210,2012-09-26 00:55:00
7:57 PM,71.6,68.0,88,29.88,10.0,SW,4.6,-,N/A,,Clear,230,2012-09-26 00:57:00
8:55 PM,70.2,68.9,96,29.82,10.0,SW,5.8,-,N/A,,Mostly Cloudy,220,2012-09-26 01:55:00
9:35 PM,73.4,64.4,73,29.83,10.0,West,9.2,-,N/A,Thunderstorm,Light Drizzle,280,2012-09-26 02:35:00
9:55 PM,72.1,65.5,79,29.86,10.0,West,9.2,-,0.00,Thunderstorm,Light Drizzle,280,2012-09-26 02:55:00
9:57 PM,71.6,64.4,78,29.87,10.0,West,9.2,-,N/A,Thunderstorm,Partly Cloudy,280,2012-09-26 02:57:00
10:18 PM,71.6,64.4,78,29.90,10.0,NW,8.1,-,N/A,,Light Drizzle,320,2012-09-26 03:18:00
10:55 PM,69.6,65.1,86,29.91,10.0,SW,16.1,-,0.02,Rain-Thunderstorm,Light Rain,230,2012-09-26 03:55:00
11:55 PM,66.6,66.2,99,29.94,10.0,South,9.2,-,0.02,Rain,Light Rain,180,2012-09-26 04:55:00